Meath Environmental Platform

Observations for Trim Market St

Time AQI Temp °C Hum % Pres Pa CO μg/m³ H₂S μg/m³ NO μg/m³ NO₂ μg/m³ O₃ μg/m³ SO₂ μg/m³ PM1 μg/m³ PM2.5 μg/m³ PM10 μg/m³
Thursday 13 August 2026
09:44 2 27.3 57 57,642 0 1.38 0.64 13.67 80.95 0 2.14 4.67 6.12
09:43 2 27.3 57 57,669 0 1.57 0.62 13.39 81.76 0 2.14 3.68 6.12
09:42 2 27.4 56 57,698 0 0 0.61 13.34 78.15 0 2.14 5.21 6.82
09:41 2 27.4 56 57,713 0 0 0.6 13.27 58.53 0 2.14 4.72 6.11
09:37 2 27.7 55 57,725 0 0 0.65 11.65 56.95 0 1.43 3.76 4.67
09:32 2 28.2 54 57,618 0 0 0.64 11.01 56.52 0 2.14 3.81 6.08
09:31 2 28.3 54 57,559 0 0 0.64 9.66 47.8 0 1.43 3.31 3.91
09:30 2 28.5 53 57,475 0 0 0.66 10.2 53.06 0 2.14 4.35 6.08
09:22 2 29.7 51 55,955 0 0 0.64 11.09 32.89 0 1.43 3.45 3.82
09:21 2 29.7 51 55,781 0 0 0.64 8.92 29.15 0 2.14 3.97 6.04
09:20 2 29.7 51 55,784 0 0 0.69 8.05 23.64 0 2.14 4.48 6.04
09:19 2 29.8 51 55,802 0 0 0.71 9.02 25.76 0 1.43 3.45 3.82
09:18 2 29.7 51 55,801 0.19 0 0.77 8.62 20.24 0 2.14 3.96 6.05
09:17 2 29.8 51 55,831 0 0 0.79 10.51 25.58 0 1.43 2.93 3.09
09:16 2 29.8 51 55,878 0.02 0 0.81 9.31 0 0 2.14 3.95 4.57
09:15 2 29.8 51 55,970 0.13 0 0.84 11.9 5.94 0 0 2.91 3.1
09:14 2 29.8 51 56,007 0.37 0 0.82 12.09 10.44 0 0.71 3.42 3.84
09:13 2 29.7 52 56,066 0.57 0 0.83 11.06 0 0 1.43 3.92 4.58
09:12 2 29.7 52 56,196 0.12 0 0.88 12.21 0.61 0 2.14 4.42 5.32
09:11 2 29.7 52 56,357 0.01 0 0.87 11.04 10.23 0 1.43 3.9 5.33